Louisville Bowman, KY

2:19 PM EDT on August 16, 2017 (GMT -0400)
Bowman

Weather History for KLOU - April, 2014

Change the Weather History Date:

Saturday, April 19, 2014

  Actual Average Record
Temperature  
Mean Temperature 63 °F 58 °F  
Max Temperature 76 °F 68 °F 86 °F (1958)
Min Temperature 50 °F 48 °F 27 °F (1983)
Degree Days  
Heating Degree Days 2 8  
Month to date heating degree days 142 201  
Since 1 July heating degree days 4628 4124  
Cooling Degree Days 0 1  
Month to date cooling degree days 21 19  
Year to date cooling degree days 21 23  
Growing Degree Days 13 (Base 50)    
Moisture  
Dew Point 38 °F    
Average Humidity 43    
Maximum Humidity 63    
Minimum Humidity 23    
Precipitation  
Precipitation 0.00 in 0.14 in 1.22 in (2009)
Month to date precipitation 4.74 2.32  
Year to date precipitation 12.69 13.04  
Sea Level Pressure  
Sea Level Pressure 30.23 in    
Wind  
Wind Speed 7 mph (NNE)    
Max Wind Speed 17 mph    
Max Gust Speed 22 mph    
Visibility 10 miles    
Events      
T = Trace of Precipitation, MM = Missing Value Source: NWS Daily Summary

Daily Weather History Graph

Daily Weather History Graph

Search for Another Location

Airport or City:

Trip Planner

Search our weather history database for the weather conditions in past years. The results will help you decide how hot, cold, wet, or windy it might be!

Date:

Astronomy

Apr. 19, 2014 Rise Set
Actual Time 7:01 AM EDT 8:22 PM EDT
Civil Twilight 6:33 AM EDT 8:50 PM EDT
Nautical Twilight 6:00 AM EDT 9:23 PM EDT
Astronomical Twilight 5:26 AM EDT 9:58 PM EDT
Moon 12:04 AM EDT (4/19) 10:21 AM EDT (4/19)
Length of Visible Light 14h 16m
Length of Day
13h 21m
Waning Gibbous, 79% of the Moon is Illuminated
Apr 19
Waning Gibbous
Apr 22
Last Quarter
Apr 29
New
May 6
First Quarter
May 14
Full

Hourly Weather History & Observations

Time (EDT) Temp. Dew Point Humidity Pressure Visibility Wind Dir Wind Speed Gust Speed Precip Events Conditions
12:53 AM 57.0 °F 43.0 °F 59% 30.21 in 10.0 mi Calm Calm - N/A   Clear
1:53 AM 55.0 °F 42.1 °F 62% 30.22 in 10.0 mi NNW 4.6 mph - N/A   Clear
2:53 AM 55.0 °F 39.9 °F 57% 30.22 in 10.0 mi NNW 3.5 mph - N/A   Clear
3:53 AM 54.0 °F 39.9 °F 59% 30.22 in 10.0 mi NNW 4.6 mph - N/A   Clear
4:53 AM 53.6 °F 39.2 °F 58% 30.22 in 10.0 mi NNW 4.6 mph - N/A   Clear
5:53 AM 53.1 °F 39.9 °F 61% 30.22 in 10.0 mi NNE 3.5 mph - N/A   Clear
6:53 AM 51.1 °F 39.0 °F 63% 30.25 in 10.0 mi NNW 4.6 mph - N/A   Clear
7:53 AM 52.0 °F 39.9 °F 63% 30.27 in 10.0 mi NNW 4.6 mph - N/A   Clear
8:53 AM 57.0 °F 39.9 °F 53% 30.28 in 10.0 mi NNE 5.8 mph - N/A   Clear
9:53 AM 62.1 °F 41.0 °F 46% 30.29 in 10.0 mi ENE 10.4 mph - N/A   Clear
10:53 AM 68.0 °F 41.0 °F 37% 30.28 in 10.0 mi NE 10.4 mph - N/A   Clear
11:53 AM 70.0 °F 39.9 °F 33% 30.28 in 10.0 mi NE 11.5 mph - N/A   Clear
12:53 PM 72.0 °F 42.1 °F 34% 30.26 in 10.0 mi ENE 9.2 mph - N/A   Clear
1:53 PM 73.9 °F 33.1 °F 22% 30.23 in 10.0 mi NNE 10.4 mph - N/A   Clear
2:53 PM 73.4 °F 33.8 °F 23% 30.22 in 10.0 mi East 13.8 mph 17.3 mph N/A   Clear
3:53 PM 75.0 °F 37.0 °F 25% 30.20 in 10.0 mi North - - N/A   Clear
4:53 PM 75.0 °F 36.0 °F 24% 30.20 in 10.0 mi NE 10.4 mph - N/A   Clear
5:53 PM 75.0 °F 36.0 °F 24% 30.20 in 10.0 mi ENE 10.4 mph - N/A   Clear
6:53 PM 73.9 °F 36.0 °F 25% 30.19 in 10.0 mi NE 9.2 mph - N/A   Clear
7:53 PM 72.0 °F 35.1 °F 26% 30.19 in 10.0 mi ENE 6.9 mph - N/A   Clear
8:53 PM 69.1 °F 34.0 °F 27% 30.20 in 10.0 mi NE 5.8 mph - N/A   Clear
9:53 PM 66.0 °F 35.1 °F 32% 30.20 in 10.0 mi NNE 4.6 mph - N/A   Clear
10:53 PM 64.0 °F 35.1 °F 34% 30.21 in 10.0 mi ENE 4.6 mph - N/A   Clear
11:53 PM 63.0 °F 34.0 °F 34% 30.22 in 10.0 mi NE 5.8 mph - N/A   Clear